Location: Atherton
(17.2661°S, 145.4859°E)
Time: 23:27:56
(UTC+10:00)

Transit 2A - Pass Details

Date: 20 June 2025
Orbit: 598 x 948 km, 66.7° (Epoch: 19 July)

Event Time Altitude Azimuth Distance (km) Brightness Sun altitude
Rises 10:54:12 0° 331° (NNW) 3,350 9.7 44.3°
Reaches altitude 10° 10:56:34 10° 328° (NNW) 2,470 9.1 44.5°
Maximum altitude 11:02:17 63° 248° (WSW) 1,002 7.0 45.1°
Drops below altitude 10° 11:08:28 10° 167° (SSE) 2,659 8.6 45.7°
Sets 11:11:07 0° 163° (SSE) 3,624 9.2 46.0°
